Theta_e
311 309 311 310 309 310 310 312 312 312 313 313 313 312 311 311 310 309 309 307 306 304 303 302 302 301 301 301 303 304 305 306 309 312 312 314 316 318 319 320 320 320 319 319
311 311 311 310 312 313 312 313 313 312 313 314 312 311 312 312 311 310 306 305 305 304 301 300 299 300 300 299 300 301 302 303 304 306 308 310 311 311 312 314 316 317 317 316
312 313 312 314 315 315 314 314 313 314 313 311 312 312 312 311 307 306 305 304 303 302 301 299 298 297 298 298 297 298 299 299 301 303 304 305 305 305 305 305 306 306 309 313
314 314 315 314 315 314 315 313 313 313 311 315 312 315 312 311 307 305 304 302 301 300 299 299 298 297 296 296 296 296 295 296 298 299 299 299 298 299 299 300 302 303 304 308
317 313 312 313 314 312 314 311 311 311 311 312 312 313 312 308 308 306 303 302 301 300 299 298 296 296 296 296 296 296 296 295 295 296 296 296 296 296 297 297 298 299 300 302
311 308 309 310 310 311 309 311 311 310 310 315 314 313 313 310 309 306 304 302 302 300 299 298 297 296 296 296 295 295 295 294 294 294 294 294 294 295 295 295 295 295 296 297
313 311 310 309 310 309 309 310 315 317 315 318 314 314 313 309 307 306 304 302 300 298 296 295 296 296 295 294 294 294 294 293 292 292 293 293 293 292 292 292 292 292 292 294
315 315 310 309 310 312 310 313 318 316 319 317 313 315 315 307 305 303 301 299 297 295 294 293 293 294 294 293 293 292 292 291 289 289 289 290 290 290 289 289 288 288 288 288
313 312 310 309 310 312 314 314 313 315 301 309 312 313 310 307 304 302 300 298 296 294 293 292 292 292 292 291 291 291 290 290 289 288 288 288 289 288 287 287 286 286 286 286
313 316 312 310 310 308 312 310 314 311 310 308 312 311 309 309 305 302 300 297 295 294 291 290 290 291 290 290 289 289 289 289 288 288 287 287 287 288 287 287 286 285 285 285
312 312 312 311 311 312 310 310 310 311 312 313 311 310 308 308 303 301 300 299 295 294 290 289 290 290 290 289 289 289 288 288 288 288 287 287 286 286 286 287 286 285 285 284
312 316 315 314 310 308 308 309 309 312 314 313 315 315 305 302 300 300 299 298 295 294 290 288 290 290 290 289 289 289 289 288 288 288 287 287 287 287 286 286 285 285 285 284
311 312 301 301 307 309 310 310 310 310 310 310 313 311 303 302 301 299 298 296 291 290 291 290 290 289 289 289 289 289 289 288 288 288 288 287 287 287 287 286 286 285 284 284
308 307 303 305 305 308 307 308 306 307 306 305 306 305 304 301 299 295 293 290 289 289 288 288 289 288 288 289 289 289 288 288 288 288 287 287 287 287 286 286 286 286 284 284
306 305 306 305 307 304 304 304 302 302 301 299 299 297 297 297 297 290 288 288 288 288 288 288 288 288 288 288 288 288 288 288 288 287 287 287 287 286 286 285 285 285 284 283
299 298 298 295 300 300 300 299 298 299 299 298 298 299 297 291 287 287 288 288 288 287 287 288 288 288 288 288 288 288 287 287 286 286 285 285 285 284 284 284 284 284 283 283
298 295 291 291 295 292 290 294 295 295 295 297 297 296 289 291 289 288 288 288 287 287 288 287 286 287 287 287 286 286 285 284 283 282 282 282 282 282 282 282 283 283 283 282
294 290 287 286 284 288 292 291 292 292 292 292 292 289 289 289 288 287 288 288 287 287 287 286 286 286 285 283 282 281 280 279 279 278 278 278 277 277 276 276 276 276 276 277
294 295 286 286 278 287 292 291 291 291 289 287 288 290 289 288 287 287 288 287 287 287 287 286 284 282 281 280 278 277 276 276 275 275 275 274 273 272 271 271 271 270 270 271
291 294 291 275 284 285 286 287 288 286 287 282 284 284 285 288 286 286 286 287 287 286 284 283 282 280 278 277 275 274 274 273 273 272 271 270 269 268 267 267 266 266 266 266
283 283 293 290 284 284 288 288 288 287 288 287 287 284 284 286 286 287 287 286 284 283 281 281 279 277 276 274 273 272 271 271 270 269 268 267 266 265 264 264 264 263 263 264
286 284 282 283 286 288 288 288 289 289 289 289 287 287 287 287 287 286 285 283 282 280 278 277 275 274 273 272 271 270 269 269 267 266 265 264 263 263 263 262 262 262 262 263
288 287 285 287 286 287 287 287 288 288 288 287 287 286 286 286 286 285 283 281 280 278 276 275 273 272 271 270 269 268 267 266 265 264 262 262 262 262 262 262 262 262 262 262
287 286 287 286 288 288 288 287 287 287 287 287 287 286 286 286 284 282 281 279 277 275 274 272 271 270 269 268 267 266 265 264 263 262 261 261 261 261 261 262 262 262 262 262
287 287 286 286 288 288 287 287 287 287 287 287 285 284 283 282 280 279 278 276 274 273 271 270 269 268 267 266 265 265 264 263 262 262 261 261 261 261 261 261 262 262 263 264
289 289 289 288 289 288 288 288 287 287 287 286 283 281 280 279 278 276 274 273 271 270 269 268 267 266 265 264 264 263 263 262 261 261 261 260 260 261 261 261 262 262 264 265
Wind_Speed
3 3 7 12 10 6 3 4 5 5 8 6 9 7 9 15 10 6 8 17 12 15 18 27 29 33 36 38 34 32 29 25 17 11 8 5 5 4 7 10 12 13 15 19
1 6 11 6 5 6 7 6 6 5 5 3 8 9 16 16 6 1 17 12 11 11 16 23 26 31 35 33 36 34 30 27 24 21 16 9 8 9 8 6 7 12 16 16
7 6 7 7 4 7 4 4 4 6 4 5 5 6 7 7 15 18 15 15 14 13 14 13 21 26 30 33 32 34 33 32 27 21 16 14 13 13 15 15 12 11 11 15
7 7 9 5 5 7 4 7 5 4 2 3 3 4 8 3 13 12 11 12 12 12 13 14 17 22 26 28 29 31 32 32 31 29 27 25 22 17 16 16 14 11 11 12
6 3 2 3 5 6 6 2 3 2 2 2 5 2 7 8 6 6 7 10 11 11 11 11 16 20 25 26 27 27 28 30 29 28 28 27 26 22 20 21 19 16 13 12
6 2 3 6 1 2 4 2 3 2 3 1 6 6 5 3 8 7 7 10 10 9 8 12 18 22 25 25 26 26 26 27 25 25 26 26 26 25 27 28 28 27 23 17
3 4 2 3 2 3 4 5 3 3 1 5 3 2 6 6 7 15 14 12 10 8 8 8 12 18 20 22 21 21 22 25 24 25 25 25 23 23 23 24 25 26 28 28
3 5 7 4 6 6 6 6 4 5 3 5 7 4 3 10 16 15 13 11 8 8 7 7 12 15 15 17 17 18 18 19 21 22 21 20 21 22 21 22 23 24 25 26
4 5 1 4 2 5 4 4 2 2 2 3 4 2 6 10 11 10 10 9 7 7 7 7 12 12 11 11 11 12 12 9 12 13 12 13 12 13 16 18 20 22 24 26
2 2 4 2 3 5 1 2 1 2 1 3 3 3 4 8 9 8 7 7 6 6 7 6 8 9 9 9 10 11 10 10 10 15 16 15 11 13 16 14 16 18 21 24
3 4 4 4 5 3 2 0 2 3 4 4 2 5 1 12 9 8 7 7 7 6 6 5 6 6 5 5 7 8 10 12 13 16 19 21 21 22 20 20 21 21 22 22
0 3 4 8 4 1 5 4 5 3 4 3 0 9 8 12 10 7 7 7 7 6 7 7 7 4 2 6 10 12 14 15 18 21 23 26 27 27 26 25 28 29 29 27
5 3 2 8 5 3 5 2 5 4 2 6 4 10 7 11 6 2 5 6 6 5 3 5 6 5 4 6 10 14 16 18 19 22 25 28 31 34 37 38 37 35 35 36
3 2 6 8 3 2 3 5 5 5 2 2 11 11 23 14 4 5 5 5 5 3 2 1 1 5 8 12 15 15 17 19 20 22 24 27 29 33 40 44 44 44 44 43
3 5 4 3 4 3 5 12 4 6 13 7 21 16 18 10 1 7 7 5 5 4 5 3 1 4 9 11 14 17 24 22 21 23 26 28 29 37 42 44 44 43 41 39
4 2 3 4 2 5 11 15 10 14 18 14 16 22 6 2 7 6 5 3 3 5 4 2 4 7 10 12 16 16 15 16 17 21 27 31 34 37 38 39 40 41 41 38
5 4 3 5 3 4 9 12 15 9 5 5 8 11 2 5 6 5 2 3 5 3 4 5 5 6 8 10 14 15 17 19 23 27 31 31 32 33 34 36 38 39 40 41
6 6 3 3 4 3 6 3 4 7 5 5 3 4 5 6 5 3 2 3 5 5 4 4 6 10 9 12 16 19 21 23 23 24 25 26 26 27 29 32 32 34 33 34
3 5 2 4 5 7 9 4 4 6 6 4 6 3 4 3 2 3 4 5 5 1 2 4 7 12 15 18 18 18 19 19 20 22 23 22 23 30 32 33 34 37 39 40
5 3 5 3 5 9 6 3 4 4 6 6 6 5 5 3 1 6 6 4 2 4 5 10 13 16 17 17 22 22 20 18 19 20 22 25 28 27 29 33 38 38 37 39
3 1 15 9 5 8 7 5 5 5 7 5 6 6 5 5 7 8 2 2 2 2 6 11 14 11 12 18 19 19 20 20 22 24 26 26 27 30 32 34 32 34 35 36
7 7 4 3 4 7 5 4 7 5 3 6 6 7 7 8 9 6 6 4 1 5 6 8 10 12 15 16 19 20 22 25 27 27 28 29 29 29 29 30 32 32 33 34
1 7 6 10 7 5 7 7 7 4 5 6 7 8 10 8 7 7 4 1 2 4 6 8 11 13 14 15 17 22 26 27 28 29 30 29 29 30 29 29 31 30 30 30
4 4 4 5 5 8 10 6 7 7 7 8 6 8 7 8 6 4 3 2 1 4 7 10 14 15 15 16 19 22 26 28 28 29 29 30 29 30 29 28 28 28 29 29
7 6 4 4 8 11 10 9 10 9 9 8 5 6 7 6 4 4 3 1 2 4 7 11 13 14 17 21 23 26 27 29 28 28 30 30 28 28 30 29 29 30 32 32
10 10 6 8 14 7 7 7 6 7 8 9 9 6 5 6 6 5 3 2 2 4 11 13 13 16 20 26 27 28 29 27 27 29 28 28 29 28 29 29 31 33 35 37
Wind_Direction
217 130 202 213 206 219 266 270 259 266 281 299 280 288 285 264 287 314 316 113 90 71 62 50 44 45 46 49 53 52 57 56 59 54 40 12 0 332 280 274 263 260 256 249
71 222 229 229 234 232 227 244 264 277 280 326 287 297 277 288 280 93 112 78 76 75 60 47 44 45 47 45 47 55 54 51 53 59 52 48 40 48 28 347 294 279 276 268
190 224 195 190 260 291 279 240 238 254 297 279 304 301 291 52 76 78 74 85 73 69 69 59 51 47 51 52 50 53 55 53 53 52 53 55 55 50 34 25 11 346 303 281
251 246 236 257 253 201 254 248 222 245 82 236 60 277 290 55 84 72 79 78 82 74 66 60 51 48 48 49 50 50 51 52 51 51 55 55 49 36 11 7 358 352 360 294
252 198 154 181 220 151 228 100 166 195 194 46 287 109 268 119 87 98 87 84 77 76 74 66 55 52 50 47 44 44 45 44 43 44 42 43 42 38 32 22 11 1 351 349
241 243 217 209 42 133 146 34 311 95 118 72 267 168 287 162 172 125 100 91 84 75 73 69 62 51 44 38 35 35 35 37 35 38 38 34 32 27 24 18 15 7 2 354
308 235 201 141 95 36 85 75 315 351 18 222 189 56 246 10 86 125 120 101 91 84 65 55 48 52 47 41 36 40 33 30 27 29 30 27 23 25 25 19 10 3 357 356
219 314 168 183 184 185 171 173 170 222 212 230 10 253 323 104 95 99 98 104 95 80 81 71 63 57 53 44 40 37 39 32 29 27 24 20 17 13 16 15 9 0 355 350
207 252 194 161 182 153 177 173 190 169 51 60 209 266 105 109 104 110 107 98 100 99 90 87 80 76 72 63 55 48 45 43 33 33 34 26 7 359 5 9 360 351 347 345
171 283 291 140 35 4 107 152 47 14 296 257 262 238 216 163 142 125 116 121 125 125 112 107 96 88 76 60 47 37 33 29 20 11 9 6 355 349 356 356 351 342 336 336
125 131 261 117 195 141 38 200 194 167 167 196 254 249 196 143 149 142 168 175 160 143 140 130 114 100 80 54 29 19 16 13 6 1 353 350 351 348 341 332 332 329 327 327
300 140 215 231 261 141 181 213 171 170 238 242 229 252 152 144 153 165 193 168 159 154 160 165 167 145 8 344 344 341 341 344 347 346 343 341 339 337 332 325 322 323 319 318
174 182 348 337 10 32 75 99 105 93 80 218 220 252 120 129 146 117 173 161 129 130 153 209 207 202 239 285 297 305 307 310 316 321 326 327 327 327 325 320 319 318 315 313
75 140 175 224 163 128 281 174 114 123 186 236 251 290 284 304 354 142 99 83 112 81 31 5 348 252 271 281 276 277 280 283 287 292 303 305 310 315 316 314 310 311 313 312
124 190 205 259 124 162 221 258 174 210 241 207 272 272 277 294 211 151 134 101 61 355 312 290 321 315 311 318 319 312 305 289 291 294 298 301 306 309 308 304 303 302 303 300
355 210 83 306 264 227 265 265 253 239 249 247 256 266 276 132 96 109 105 84 312 298 328 10 312 308 312 326 334 333 327 316 318 316 312 311 308 305 299 297 296 295 294 293
137 123 87 267 28 41 298 248 233 238 205 181 223 244 212 198 147 144 123 317 290 244 254 263 263 297 344 11 345 337 331 325 321 317 312 311 307 303 302 301 298 295 293 292
137 119 99 221 30 283 243 307 224 212 227 183 106 202 191 200 153 149 238 262 251 249 273 334 8 352 7 348 339 331 329 326 322 315 312 310 309 310 309 307 308 307 310 309
149 139 135 164 204 309 291 248 181 165 272 193 179 214 182 162 334 265 251 244 230 250 48 26 360 348 345 343 338 337 328 323 318 313 312 313 316 313 310 309 308 306 305 301
169 149 157 109 177 215 237 240 155 107 273 229 160 182 165 131 300 276 264 262 292 61 33 351 342 341 343 341 335 332 326 325 317 316 312 309 307 306 304 300 299 299 299 298
110 61 209 213 229 279 241 192 151 103 257 187 179 183 187 190 217 242 229 188 155 42 2 337 336 348 339 331 330 325 322 323 322 317 312 307 303 300 296 296 296 295 294 294
157 155 194 172 222 273 159 89 176 205 177 174 188 203 215 231 245 241 201 200 346 4 357 345 341 336 330 329 329 324 323 322 320 317 312 307 303 299 296 293 292 291 290 290
179 193 183 188 203 219 199 194 217 165 173 204 205 228 217 230 224 202 201 293 351 359 341 336 334 325 325 328 331 321 319 319 317 314 309 307 305 300 296 293 291 290 289 287
274 174 216 87 230 228 227 220 224 209 223 242 235 238 207 213 193 188 198 208 289 329 335 331 331 325 323 327 324 315 314 314 313 309 310 308 304 301 298 295 291 289 287 286
208 157 202 262 262 263 272 242 239 234 228 246 205 192 196 175 190 188 186 207 300 325 324 327 323 317 316 320 318 318 317 317 309 309 308 305 303 303 300 296 293 290 286 284
218 216 209 234 240 199 227 223 210 214 225 219 170 180 175 174 175 172 195 221 311 322 321 323 316 314 316 320 318 319 326 320 309 306 306 304 303 303 301 300 298 297 297 298